« Back
NWS Peachtree City, Ga » Text Product » GA Regional Weather Roundup


Printer-friendly Version
Current Version              Previous Versions:   1  2  3  4  5  6  7  8  9  

Regional Weather Roundup

582
ASUS42 KFFC 162003
RWRGA
WEATHER ROUNDUP FOR GEORGIA
NATIONAL WEATHER SERVICE PEACHTREE CITY GA
400 PM EDT TUE SEP 16 2014

NOTE: "FAIR" INDICATES FEW OR NO CLOUDS BELOW 12,000 FEET WITH NO
SIGNIFICANT WEATHER AND/OR OBSTRUCTIONS TO VISIBILITY.

* = USE WITH CAUTION. THE STATIONS MARKED WITH AN ASTERISK MAY NOT
REPORT WEATHER SUCH AS PRECIPITATION, FOG, OR THUNDER AND ARE NOT
QUALITY CONTROLLED BY NWS.

THE REMARK "TC" DENOTES TEMPERATURE READING IN DEGREES CELSIUS.

GAZ001>058-162100-
NORTH GEORGIA

CITY           SKY/WX    TMP DP  RH WIND       PRES   REMARKS
ATLANTA        CLOUDY    84  67  56 NW10      30.02F
ATHENS         MOSUNNY   87  69  54 NW5       30.00F HX  91
CHAMBLEE       MOSUNNY   85  67  54 CALM      30.02F
PEACHTREE CITY CLOUDY    82  69  64 NW5       30.02F
ROME           PTSUNNY   85  67  54 N8        30.01F
WEST ATLANTA   MOSUNNY   84  67  56 NW6       30.02F
GAINESVILLE    RAIN      78  69  73 NW10G21   30.04F
CARTERSVILLE   MOSUNNY   84  66  54 CALM      30.02F


CITY           SKY/WX    TMP DP  RH WIND       PRES   REMARKS
DALTON*        SUNNY     81  68  65 CALM      30.03F
LAWRENCEVILLE* SUNNY     82  63  51 W9        30.02F
MARIETTA       PTSUNNY   85  68  57 NW8       30.03F
KENNESAW*      MOSUNNY   84  66  54 N6        30.04F
$$

GAZ059>098-102>109-162100-
CENTRAL GEORGIA

CITY           SKY/WX    TMP DP  RH WIND       PRES   REMARKS
AUGUSTA-BUSH   MOSUNNY   89  68  49 VRB5      29.94F HX  93
AUGUSTA-DANIEL SUNNY     86  66  51 VRB5      29.97F
COLUMBUS       PTSUNNY   87  70  56 CALM      29.97F HX  92
MACON          MOSUNNY   88  69  53 NW5       29.97F HX  92
ROBINS AFB     MOSUNNY   87  71  58 NW5       29.96F HX  93


CITY           SKY/WX    TMP DP  RH WIND       PRES   REMARKS
LAGRANGE*      PTSUNNY   85  73  66 NW8       30.01F HX  92
SYLVANIA*      PTSUNNY   90  76  63 CALM      29.95F HX 101
$$

GAZ099>101-110>166-162100-
SOUTH GEORGIA

CITY           SKY/WX    TMP DP  RH WIND       PRES   REMARKS
SAVANNAH       LGT RAIN  88  73  61 W8        29.95F HX  95
VALDOSTA       CLOUDY    84  74  71 CALM      29.96F HX  91
ALMA           PTSUNNY   84  72  67 CALM      29.96F
ST SIMONS      CLOUDY    81  73  76 SE8       29.97F
FT STEWART     MOSUNNY   87  71  58 VRB2      29.94F HX  93
ALBANY         CLOUDY    88  72  58 N8        29.97F HX  94
HUNTER AFB     MOSUNNY   88  74  64 SW8       29.92F HX  96
MOODY AFB      CLOUDY    82  74  76 NE5       29.96F
BRUNSWICK      CLOUDY    84  72  65 CALM      29.97F


CITY           SKY/WX    TMP DP  RH WIND       PRES   REMARKS
BAINBRIDGE*    TSTM      81  72  74 N6        29.98S
MOULTRIE*      CLOUDY    81  73  78 CALM      29.97F
VIDALIA*       CLOUDY    81  73  78 E10G20    29.97F THUNDER
WAYCROSS*      PTSUNNY   85  79  82 E6        29.96F HX  98
DOUGLAS*       PTSUNNY   86  72  62 N5        29.98F HX  92
$$



USA.gov is the U.S. government's official web portal to all federal, state and local government web resources and services.